EW2958 Weather Reports


Display with metric or nautical units.
time (UTC)temp
F
wind
direction
speed
MPH
gust
MPH
rain 1hr
in
rain 24hr
in
rain mn
in
humidity
%
barometer
mb
20260504081549 60 283 2.0 11.0 0.00 0.00 0.00 70 1008.7
20260504044541 64 318 13.0 27.0 0.00 0.00 0.00 57 1007.3
20260504043038 64 11 7.0 24.0 0.00 0.00 0.00 58 1007.2
20260504041534 64 338 11.0 26.0 0.00 0.00 0.00 57 1007.2
20260504040030 65 327 11.0 23.0 0.00 0.00 0.00 57 1007.1
20260504034526 64 324 15.0 26.0 0.00 0.00 0.00 57 1007.1
20260504033025 64 354 12.0 25.0 0.00 0.00 0.00 57 1007.3
20260504031522 64 302 10.0 24.0 0.00 0.00 0.00 58 1007.6
20260504030028 63 299 12.0 25.0 0.00 0.00 0.00 59 1007.8
20260504024516 63 343 13.0 29.0 0.00 0.01 0.00 59 1008.0
20260504023012 61 333 10.0 28.0 0.00 0.01 0.00 61 1008.1
20260504021510 61 338 6.0 23.0 0.00 0.01 0.00 63 1008.4
20260504020012 61 343 14.0 32.0 0.00 0.18 0.00 62 1008.5
20260504014508 61 276 13.0 23.0 0.00 0.18 0.00 60 1008.6
20260504013009 62 16 9.0 26.0 0.00 0.18 0.00 59 1008.7
20260504011506 62 317 7.0 20.0 0.00 0.18 0.00 59 1008.8
20260504010004 62 331 8.0 21.0 0.00 0.24 0.00 59 1008.9
20260504004502 62 327 8.0 24.0 0.00 0.24 0.00 58 1008.9
20260504003104 61 340 10.0 23.0 0.00 0.24 0.00 58 1009.0
20260504001611 61 30 9.0 19.0 0.00 0.24 0.00 60 1009.2
20260504000156 60 342 10.0 20.0 0.00 0.24 0.00 61 1009.3
20260503234554 60 352 7.0 17.0 0.00 0.27 0.00 62 1009.4
20260503233050 59 45 8.0 17.0 0.00 0.27 0.00 65 1009.4
20260503231546 58 41 11.0 18.0 0.00 0.27 0.00 66 1009.5
20260503230047 58 63 8.0 16.0 0.00 0.27 0.00 68 1009.7
20260503224538 57 46 8.0 15.0 0.00 0.31 0.00 69 1009.6
20260503223037 55 23 8.0 15.0 0.00 0.31 0.00 71 1009.7
20260503221534 54 31 7.0 13.0 0.00 0.31 0.00 73 1009.8
20260503220045 53 32 6.0 11.0 0.00 0.31 0.00 74 1009.8
20260503214533 53 37 6.0 11.0 0.00 0.31 0.00 75 1009.8
20260503213132 52 3 8.0 15.0 0.00 0.31 0.00 75 1009.7
20260503211531 52 14 8.0 14.0 0.00 0.31 0.00 75 1009.7
20260503210029 53 339 7.0 11.0 0.00 0.31 0.00 74 1009.7
20260503204527 53 338 5.0 11.0 0.00 0.31 0.00 73 1009.6
20260503203030 53 2 6.0 12.0 0.00 0.31 0.00 72 1009.4
20260503201524 53 45 7.0 16.0 0.00 0.31 0.00 71 1009.3
20260503200021 52 360 7.0 11.0 0.00 0.31 0.00 72 1009.3
20260503194522 53 30 4.0 10.0 0.00 0.31 0.00 69 1009.4
20260503193017 54 25 3.0 9.0 0.00 0.31 0.00 69 1009.4
20260503191520 53 48 5.0 11.0 0.00 0.31 0.00 70 1009.5
20260503190013 52 360 3.0 8.0 0.00 0.31 0.00 72 1009.6
20260503184510 51 25 2.0 5.0 0.00 0.31 0.00 74 1009.8
20260503183007 53 68 1.0 6.0 0.00 0.31 0.00 71 1009.9
20260503181505 52 18 3.0 8.0 0.00 0.31 0.00 71 1009.8
20260503180008 53 71 5.0 10.0 0.00 0.31 0.00 71 1010.0
20260503174600 52 13 4.0 9.0 0.00 0.31 0.00 72 1010.0
20260503173102 52 46 2.0 7.0 0.00 0.31 0.00 73 1010.2
20260503171554 53 66 2.0 9.0 0.00 0.31 0.00 70 1010.2